Zurück zum Katalog

FENGYUN 1C DEB

AktivPO
NORAD 36269·DEBRIS·🇨🇳 China

Gestartet May 10, 1999 von Taiyuan Satellite Launch Center

Loading…

Nächste Überflüge (nächste 24 Stunden)

TLE

AktuellSource: Space-Track

Epoche: Sep 14, 2026, 04:02 UTC

1 36269U 99025DWW 26257.16854963  .00000688  00000-0  22556-3 0  9990
2 36269  99.1368 216.4513 0230474 205.3312 153.6424 14.28036387916465

Verfolge FENGYUN 1C DEB in Echtzeit mit AllMySat

Download on the App Store